Location: Follega
(52.8850°N, 5.7362°E)
Time: 20:22:00
(UTC+00:00)

Cosmos 1655 Rocket - Pass Details

Date: 01 June 2020
Orbit: 971 x 1005 km, 82.9° (Epoch: 13 July)

Event Time Altitude Azimuth Distance (km) Brightness Sun altitude
Exits shadow 22:14:57 17° 168° (SSE) 2,235 5.2 -12.9°
Maximum altitude 22:19:43 60° 93° (E) 1,111 4.2 -13.1°
Drops below altitude 10° 22:25:53 10° 16° (NNE) 2,751 7.3 -13.4°
Sets 22:28:27 0° 13° (NNE) 3,709 8.2 -13.5°
